Location: Oakhurst
(33.6448°N, 111.9543°W)
Time: 21:47:37
(UTC+00:00)

Max Valier Satellite - Pass Details

Date: 26 July 2021
Orbit: 486 x 501 km, 97.2° (Epoch: 15 September)

Event Time Altitude Azimuth Distance (km) Brightness Sun altitude
Exits shadow 04:28:31 13° 217° (SW) 1,468 ? -20.9°
Maximum altitude 04:30:46 23° 264° (W) 1,086 ? -21.3°
Drops below altitude 10° 04:33:39 10° 317° (NW) 1,674 ? -21.7°
Sets 04:36:03 0° 333° (NNW) 2,561 ? -22.0°
